,,PA_Meas_PMT16A,,PR_Meas_QMR101_102,,RH_Meas_QMH101,,SR_Meas_QMS101,,TA_Meas_QMH101,,GenWind,,GenWind,
time,status,PA,status,PR,status,RH,status,SR,status,TA,status,DirAvg,status,SpdAvg,
2016-03-17, 07:09:04,VALID,918.102,VALID,0,VALID,104,VALID,109.697,VALID,20.0944,VALID,162,VALID,0,
2016-03-17, 07:10:04,VALID,918.117,VALID,0,VALID,104,VALID,113.78,VALID,20.1139,VALID,149,VALID,0,
2016-03-17, 07:11:04,VALID,918.127,VALID,0,VALID,104,VALID,116.466,VALID,20.1529,VALID,149,VALID,0,
2016-03-17, 07:12:04,VALID,918.132,VALID,0,VALID,104,VALID,119.045,VALID,20.2114,VALID,125,VALID,0,
2016-03-17, 07:13:04,VALID,918.138,VALID,0,VALID,104,VALID,123.665,VALID,20.2504,VALID,124,VALID,0,
2016-03-17, 07:14:04,VALID,918.16,VALID,0,VALID,104,VALID,128.392,VALID,20.2489,VALID,119,VALID,0,
2016-03-17, 07:15:04,VALID,918.163,VALID,0,VALID,104,VALID,131.186,VALID,20.2504,VALID,136,VALID,0,
2016-03-17, 07:16:04,VALID,918.17,VALID,0,VALID,104,VALID,133.979,VALID,20.3284,VALID,135,VALID,0,
2016-03-17, 07:17:04,VALID,918.179,VALID,0,VALID,104,VALID,136.665,VALID,20.3479,VALID,121,VALID,0,
2016-03-17, 07:18:04,VALID,918.188,VALID,0,VALID,104,VALID,139.566,VALID,20.4064,VALID,129,VALID,0,
2016-03-17, 07:19:04,VALID,918.208,VALID,0,VALID,104,VALID,143.971,VALID,20.4845,VALID,101,VALID,0,
2016-03-17, 07:20:04,VALID,918.209,VALID,0,VALID,104,VALID,147.087,VALID,20.5219,VALID,112,VALID,0,
2016-03-17, 07:21:04,VALID,918.254,VALID,0,VALID,104,VALID,150.847,VALID,20.4829,VALID,134,VALID,0,
2016-03-17, 07:22:04,VALID,918.261,VALID,0,VALID,104,VALID,154.823,VALID,20.5414,VALID,140,VALID,0,
2016-03-17, 07:23:04,VALID,918.255,VALID,0,VALID,104,VALID,157.079,VALID,20.5804,VALID,139,VALID,0,
2016-03-17, 07:24:04,VALID,918.306,VALID,0,VALID,104,VALID,158.691,VALID,20.6795,VALID,141,VALID,0,
2016-03-17, 07:25:04,VALID,918.298,VALID,0,VALID,104,VALID,159.872,VALID,20.6764,VALID,129,VALID,0,
2016-03-17, 07:26:04,VALID,918.32,VALID,0,VALID,104,VALID,160.625,VALID,20.756,VALID,137,VALID,0,
2016-03-17, 07:27:04,VALID,918.375,VALID,0,VALID,104,VALID,160.947,VALID,20.834,VALID,141,VALID,0,
2016-03-17, 07:28:04,VALID,918.356,VALID,0,VALID,104,VALID,161.269,VALID,20.8925,VALID,146,VALID,0,
2016-03-17, 07:29:04,VALID,918.387,VALID,0,VALID,104,VALID,162.558,VALID,20.8535,VALID,153,VALID,0,
2016-03-17, 07:30:04,VALID,918.396,VALID,0,VALID,104,VALID,162.236,VALID,20.8746,VALID,147,VALID,0,
2016-03-17, 07:31:04,VALID,918.433,VALID,0,VALID,104,VALID,163.096,VALID,20.834,VALID,146,VALID,0,
2016-03-17, 07:32:04,VALID,918.44,VALID,0,VALID,104,VALID,163.096,VALID,20.8714,VALID,144,VALID,0,
2016-03-17, 07:33:04,VALID,918.443,VALID,0,VALID,104,VALID,162.773,VALID,20.9706,VALID,113,VALID,0,
2016-03-17, 07:34:04,VALID,918.474,VALID,0,VALID,104,VALID,162.558,VALID,21.1071,VALID,116,VALID,0,
2016-03-17, 07:35:04,VALID,918.498,VALID,0,VALID,104,VALID,163.203,VALID,21.125,VALID,105,VALID,0,
2016-03-17, 07:36:04,VALID,918.524,VALID,0,INVALID,109.091,VALID,166.641,VALID,21.2031,VALID,127,VALID,0,
2016-03-17, 07:37:04,VALID,918.515,VALID,0,INVALID,109.205,VALID,169.005,VALID,21.3022,VALID,132,VALID,0,
2016-03-17, 07:38:04,VALID,918.551,VALID,0,INVALID,109.183,VALID,172.98,VALID,21.4193,VALID,131,VALID,0,
2016-03-17, 07:39:04,VALID,918.575,VALID,0,INVALID,109.289,VALID,176.311,VALID,21.4778,VALID,116,VALID,0,
2016-03-17, 07:40:04,VALID,918.566,VALID,0,INVALID,109.152,VALID,179.534,VALID,21.5542,VALID,113,VALID,0,
2016-03-17, 07:41:04,VALID,918.607,VALID,0,INVALID,109.022,VALID,182.435,VALID,21.6323,VALID,126,VALID,0,
2016-03-17, 07:42:04,VALID,918.626,VALID,0,VALID,104,VALID,185.873,VALID,21.6713,VALID,129,VALID,0,
2016-03-17, 07:43:04,VALID,918.631,VALID,0,VALID,104,VALID,188.237,VALID,21.7493,VALID,128,VALID,0,
2016-03-17, 07:44:04,VALID,918.641,VALID,0,VALID,104,VALID,191.245,VALID,21.8079,VALID,123,VALID,0,
2016-03-17, 07:45:04,VALID,918.618,VALID,0,VALID,104,VALID,194.361,VALID,21.9444,VALID,130,VALID,0,
2016-03-17, 07:46:04,VALID,918.631,VALID,0,VALID,104,VALID,196.94,VALID,21.964,VALID,133,VALID,0,
2016-03-17, 07:47:04,VALID,918.671,VALID,0,VALID,104,VALID,202.527,VALID,22.0632,VALID,104,VALID,0,
2016-03-17, 07:48:04,VALID,918.672,VALID,0,VALID,104,VALID,204.675,VALID,22.1201,VALID,98,VALID,0,
2016-03-17, 07:49:04,VALID,918.707,VALID,0,VALID,104,VALID,205.642,VALID,22.1981,VALID,123,VALID,0,
2016-03-17, 07:50:04,VALID,918.724,VALID,0,VALID,104,VALID,206.18,VALID,22.2567,VALID,123,VALID,0,
2016-03-17, 07:51:04,VALID,918.721,VALID,0,VALID,104,VALID,207.254,VALID,22.3933,VALID,128,VALID,0,
2016-03-17, 07:52:04,VALID,918.768,VALID,0,VALID,104,VALID,209.188,VALID,22.4908,VALID,137,VALID,0,
2016-03-17, 07:53:04,VALID,918.745,VALID,0,VALID,104,VALID,212.304,VALID,22.5884,VALID,137,VALID,0,
2016-03-17, 07:54:04,VALID,918.761,VALID,0,VALID,104,VALID,216.601,VALID,22.647,VALID,139,VALID,0,
2016-03-17, 07:55:04,VALID,918.744,VALID,0,VALID,104,VALID,218.858,VALID,22.7072,VALID,174,VALID,0,
2016-03-17, 07:56:04,VALID,918.752,VALID,0,VALID,103.785,VALID,223.8,VALID,22.647,VALID,152,VALID,0,
2016-03-17, 07:57:04,VALID,918.756,VALID,0,VALID,103.999,VALID,228.42,VALID,22.6665,VALID,177,VALID,0,
2016-03-17, 07:58:04,VALID,918.776,VALID,0,VALID,103.77,VALID,232.932,VALID,22.686,VALID,168,VALID,0,
2016-03-17, 07:59:04,VALID,918.804,VALID,0,VALID,103.739,VALID,235.296,VALID,22.6452,VALID,166,VALID,0,
2016-03-17, 08:00:04,VALID,918.791,VALID,0,VALID,103.313,VALID,237.123,VALID,22.6665,VALID,173,VALID,0.817578,
2016-03-17, 08:01:04,VALID,918.807,VALID,0,VALID,103.069,VALID,240.238,VALID,22.6257,VALID,141,VALID,0,
2016-03-17, 08:02:04,VALID,918.809,VALID,0,VALID,102.657,VALID,243.569,VALID,22.6079,VALID,130,VALID,0,
2016-03-17, 08:03:04,VALID,918.818,VALID,0,VALID,103.579,VALID,247.437,VALID,22.647,VALID,195,VALID,0,
2016-03-17, 08:04:04,VALID,918.83,VALID,0,VALID,102.893,VALID,251.52,VALID,22.6843,VALID,128,VALID,0,
2016-03-17, 08:05:04,VALID,918.797,VALID,0,VALID,103.252,VALID,253.883,VALID,22.7836,VALID,141,VALID,0,
2016-03-17, 08:06:04,VALID,918.81,VALID,0,VALID,102.352,VALID,255.495,VALID,22.8031,VALID,135,VALID,0.119141,
2016-03-17, 08:07:04,VALID,918.774,VALID,0,VALID,102.169,VALID,258.289,VALID,22.8226,VALID,149,VALID,0,
2016-03-17, 08:08:04,VALID,918.817,VALID,0,VALID,102.184,VALID,265.702,VALID,22.8794,VALID,134,VALID,0,
2016-03-17, 08:09:04,VALID,918.823,VALID,0,VALID,101.917,VALID,270.752,VALID,22.9397,VALID,155,VALID,0,
2016-03-17, 08:10:04,VALID,918.833,VALID,0,VALID,102.489,VALID,276.016,VALID,23.016,VALID,125,VALID,0,
2016-03-17, 08:11:04,VALID,918.823,VALID,0,VALID,103.191,VALID,278.165,VALID,23.1331,VALID,123,VALID,0,
2016-03-17, 08:12:04,VALID,918.857,VALID,0,VALID,102.817,VALID,281.926,VALID,23.268,VALID,130,VALID,0,
2016-03-17, 08:13:04,VALID,918.852,VALID,0,VALID,101.567,VALID,287.083,VALID,23.3869,VALID,154,VALID,0,
2016-03-17, 08:14:04,VALID,918.866,VALID,0,VALID,100.698,VALID,292.025,VALID,23.5235,VALID,147,VALID,0,
2016-03-17, 08:15:04,VALID,918.872,VALID,0,VALID,100.477,VALID,295.678,VALID,23.504,VALID,159,VALID,0,
2016-03-17, 08:16:04,VALID,918.877,VALID,0,VALID,100.576,VALID,298.472,VALID,23.5235,VALID,121,VALID,0.169922,
2016-03-17, 08:17:04,VALID,918.886,VALID,0,VALID,100.179,VALID,301.158,VALID,23.5839,VALID,133,VALID,0,
2016-03-17, 08:18:04,VALID,918.854,VALID,0,VALID,97.8923,VALID,303.951,VALID,23.6034,VALID,135,VALID,0.0375,
2016-03-17, 08:19:04,VALID,918.894,VALID,0,VALID,98.243,VALID,307.174,VALID,23.6424,VALID,115,VALID,0,
2016-03-17, 08:20:04,VALID,918.885,VALID,0,VALID,97.9304,VALID,310.505,VALID,23.6797,VALID,124,VALID,0,
2016-03-17, 08:21:04,VALID,918.895,VALID,0,VALID,87.898,VALID,315.555,VALID,23.6034,VALID,97,VALID,2.55703,
2016-03-17, 08:22:04,VALID,918.892,VALID,0,VALID,94.6676,VALID,320.39,VALID,23.5626,VALID,79,VALID,0.0289063,
2016-03-17, 08:23:04,VALID,918.859,VALID,0,VALID,93.3564,VALID,323.183,VALID,23.5821,VALID,149,VALID,0,
2016-03-17, 08:24:04,VALID,918.87,VALID,0,VALID,96.36,VALID,327.051,VALID,23.6797,VALID,137,VALID,0,
2016-03-17, 08:25:04,VALID,918.863,VALID,0,VALID,99.7372,VALID,332.101,VALID,23.8358,VALID,97,VALID,0,
2016-03-17, 08:26:04,VALID,918.855,VALID,0,VALID,93.1353,VALID,336.828,VALID,23.9139,VALID,83,VALID,1.13242,
2016-03-17, 08:27:04,VALID,918.841,VALID,0,VALID,91.3285,VALID,341.77,VALID,23.8731,VALID,122,VALID,1.26289,
2016-03-17, 08:28:04,VALID,918.868,VALID,0,VALID,93.951,VALID,344.671,VALID,23.8926,VALID,151,VALID,0,
2016-03-17, 08:29:04,VALID,918.856,VALID,0,VALID,89.5675,VALID,348.324,VALID,23.992,VALID,141,VALID,0,
2016-03-17, 08:30:04,VALID,918.878,VALID,0,VALID,86.4877,VALID,350.903,VALID,23.953,VALID,152,VALID,0.114453,
2016-03-17, 08:31:04,VALID,918.876,VALID,0,VALID,90.8178,VALID,352.514,VALID,23.9335,VALID,122,VALID,0.0148437,
2016-03-17, 08:32:04,VALID,918.927,VALID,0,VALID,89.255,VALID,355.63,VALID,23.8926,VALID,158,VALID,0.127344,
2016-03-17, 08:33:04,VALID,918.927,VALID,0,VALID,90.4366,VALID,357.134,VALID,23.9139,VALID,157,VALID,0.240625,
2016-03-17, 08:34:04,VALID,918.927,VALID,0,VALID,89.9639,VALID,361.647,VALID,23.9707,VALID,156,VALID,0,
2016-03-17, 08:35:04,VALID,918.962,VALID,0,VALID,89.2016,VALID,367.019,VALID,23.9707,VALID,172,VALID,0.0375,
2016-03-17, 08:36:04,VALID,918.968,VALID,0,VALID,87.433,VALID,370.35,VALID,24.0506,VALID,177,VALID,0.520703,
2016-03-17, 08:37:04,VALID,918.989,VALID,0,VALID,89.0644,VALID,373.358,VALID,24.0878,VALID,154,VALID,0,
2016-03-17, 08:38:04,VALID,918.977,VALID,0,VALID,88.363,VALID,375.937,VALID,24.1287,VALID,166,VALID,0,
2016-03-17, 08:39:04,VALID,918.951,VALID,0,VALID,85.5347,VALID,380.557,VALID,24.2458,VALID,163,VALID,0,
2016-03-17, 08:40:04,VALID,918.982,VALID,0,VALID,82.3253,VALID,383.672,VALID,24.3435,VALID,147,VALID,0.357031,
2016-03-17, 08:41:04,VALID,918.965,VALID,0,VALID,81.2351,VALID,388.722,VALID,24.3416,VALID,142,VALID,0.730859,
2016-03-17, 08:42:04,VALID,918.992,VALID,0,VALID,81.4333,VALID,392.268,VALID,24.4216,VALID,132,VALID,0.574609,
2016-03-17, 08:43:04,VALID,918.995,VALID,0,VALID,83.5298,VALID,395.061,VALID,24.402,VALID,117,VALID,0,
2016-03-17, 08:44:04,VALID,919.015,VALID,0,VALID,86.9146,VALID,397.855,VALID,24.4997,VALID,158,VALID,0,
2016-03-17, 08:45:04,VALID,919.047,VALID,0,VALID,83.85,VALID,403.979,VALID,24.5973,VALID,136,VALID,0,
2016-03-17, 08:46:04,VALID,919.047,VALID,0,VALID,80.9912,VALID,408.491,VALID,24.6149,VALID,118,VALID,0.451953,
2016-03-17, 08:47:04,VALID,919.033,VALID,0,VALID,80.0001,VALID,410.64,VALID,24.6735,VALID,92,VALID,1.42188,
2016-03-17, 08:48:04,VALID,919.099,VALID,0,VALID,80.8082,VALID,414.401,VALID,24.6131,VALID,104,VALID,1.25469,
2016-03-17, 08:49:04,VALID,919.089,VALID,0,VALID,81.4638,VALID,415.797,VALID,24.5759,VALID,57,VALID,0.837891,
2016-03-17, 08:50:04,VALID,919.098,VALID,0,VALID,80.5109,VALID,416.012,VALID,24.5954,VALID,117,VALID,0.526563,
2016-03-17, 08:51:04,VALID,919.128,VALID,0,VALID,82.9199,VALID,422.459,VALID,24.6345,VALID,164,VALID,0,
2016-03-17, 08:52:04,VALID,919.155,VALID,0,VALID,80.6024,VALID,424.285,VALID,24.7321,VALID,134,VALID,0.0101562,
2016-03-17, 08:53:04,VALID,919.173,VALID,0,VALID,79.5122,VALID,428.046,VALID,24.6912,VALID,125,VALID,1.69297,
2016-03-17, 08:54:04,VALID,919.185,VALID,0,VALID,80.8387,VALID,430.839,VALID,24.7107,VALID,118,VALID,0,
2016-03-17, 08:55:04,VALID,919.171,VALID,0,VALID,79.8172,VALID,434.814,VALID,24.7302,VALID,131,VALID,0.0796875,
2016-03-17, 08:56:04,VALID,919.158,VALID,0,VALID,79.0929,VALID,438.252,VALID,24.8688,VALID,63,VALID,0.00429688,
2016-03-17, 08:57:04,VALID,919.16,VALID,0,VALID,81.5705,VALID,442.228,VALID,24.984,VALID,138,VALID,0,
2016-03-17, 08:58:04,VALID,919.195,VALID,0,VALID,79.5122,VALID,442.55,VALID,25.025,VALID,131,VALID,0.367188,
2016-03-17, 08:59:04,VALID,919.225,VALID,0,VALID,78.9786,VALID,447.063,VALID,25.064,VALID,124,VALID,0.804297,
2016-03-17, 09:00:04,VALID,919.217,VALID,0,VALID,79.2607,VALID,445.236,VALID,24.9664,VALID,120,VALID,1.95898,
2016-03-17, 09:01:04,VALID,919.215,VALID,0,VALID,79.5122,VALID,453.509,VALID,24.9059,VALID,120,VALID,0,
2016-03-17, 09:02:04,VALID,919.228,VALID,0,VALID,80.4957,VALID,452.972,VALID,24.8688,VALID,116,VALID,0.322266,
2016-03-17, 09:03:04,VALID,919.276,VALID,0,VALID,82.0203,VALID,451.038,VALID,25.0055,VALID,94,VALID,0.0265625,
2016-03-17, 09:04:04,VALID,919.287,VALID,0,VALID,81.5477,VALID,455.765,VALID,25.1402,VALID,78,VALID,0.00585938,
2016-03-17, 09:05:04,VALID,919.291,VALID,0,VALID,79.5961,VALID,459.203,VALID,25.316,VALID,58,VALID,0,
2016-03-17, 09:06:04,VALID,919.305,VALID,0,VALID,80.1755,VALID,456.947,VALID,25.5327,VALID,86,VALID,0,
2016-03-17, 09:07:04,VALID,919.3,VALID,0,VALID,74.8391,VALID,453.831,VALID,25.6284,VALID,159,VALID,0,
2016-03-17, 09:08:04,VALID,919.278,VALID,0,VALID,76.379,VALID,455.765,VALID,25.7476,VALID,82,VALID,0.323438,
2016-03-17, 09:09:04,VALID,919.304,VALID,0,VALID,73.0933,VALID,455.658,VALID,25.5327,VALID,134,VALID,1.34961,
2016-03-17, 09:10:04,VALID,919.3,VALID,0,VALID,75.0906,VALID,460.708,VALID,25.3179,VALID,181,VALID,0.73125,
2016-03-17, 09:11:04,VALID,919.309,VALID,0,VALID,76.6458,VALID,460.063,VALID,25.355,VALID,162,VALID,0,
2016-03-17, 09:12:04,VALID,919.272,VALID,0,VALID,76.4705,VALID,451.79,VALID,25.3941,VALID,65,VALID,1.725,
2016-03-17, 09:13:04,VALID,919.286,VALID,0,VALID,76.844,VALID,451.683,VALID,25.2593,VALID,72,VALID,0.928125,
2016-03-17, 09:14:04,VALID,919.295,VALID,0,VALID,76.5315,VALID,468.443,VALID,25.1226,VALID,58,VALID,0.00585938,
2016-03-17, 09:15:04,VALID,919.28,VALID,0,VALID,78.1019,VALID,478.758,VALID,25.1226,VALID,57,VALID,0,
2016-03-17, 09:16:04,VALID,919.261,VALID,0,VALID,79.1539,VALID,480.584,VALID,25.2398,VALID,56,VALID,0.1125,
2016-03-17, 09:17:04,VALID,919.271,VALID,0,VALID,78.1705,VALID,482.088,VALID,25.4527,VALID,38,VALID,0,
2016-03-17, 09:18:04,VALID,919.212,VALID,0,VALID,75.8454,VALID,479.51,VALID,25.5913,VALID,59,VALID,1.49375,
2016-03-17, 09:19:04,VALID,919.229,VALID,0,VALID,76.6001,VALID,465.865,VALID,25.4917,VALID,23,VALID,1.33086,
2016-03-17, 09:20:04,VALID,919.227,VALID,0,VALID,77.8275,VALID,478.973,VALID,25.4741,VALID,39,VALID,1.37148,
2016-03-17, 09:21:04,VALID,919.215,VALID,0,VALID,78.2162,VALID,496.378,VALID,25.4156,VALID,39,VALID,1.67109,
2016-03-17, 09:22:04,VALID,919.225,VALID,0,VALID,80.793,VALID,507.122,VALID,25.4331,VALID,39,VALID,1.77422,
2016-03-17, 09:23:04,VALID,919.262,VALID,0,VALID,79.5427,VALID,514.858,VALID,25.4917,VALID,85,VALID,0.00195313,
2016-03-17, 09:24:04,VALID,919.23,VALID,0,VALID,75.0297,VALID,518.726,VALID,25.4917,VALID,67,VALID,0.492969,
2016-03-17, 09:25:04,VALID,919.256,VALID,0,VALID,77.2404,VALID,526.462,VALID,25.5894,VALID,50,VALID,0,
2016-03-17, 09:26:04,VALID,919.232,VALID,0,VALID,76.9203,VALID,538.28,VALID,25.8237,VALID,88,VALID,0,
2016-03-17, 09:27:04,VALID,919.275,VALID,0,VALID,73.2382,VALID,543.33,VALID,25.8648,VALID,119,VALID,0,
2016-03-17, 09:28:04,VALID,919.288,VALID,0,VALID,73.3144,VALID,538.173,VALID,25.8237,VALID,122,VALID,0,
2016-03-17, 09:29:04,VALID,919.306,VALID,0,VALID,74.7552,VALID,537.421,VALID,25.8042,VALID,122,VALID,0,
2016-03-17, 09:30:04,VALID,919.298,VALID,0,VALID,76.1274,VALID,547.52,VALID,25.8823,VALID,122,VALID,0,
2016-03-17, 09:31:04,VALID,919.316,VALID,0,VALID,75.022,VALID,557.834,VALID,26.0386,VALID,122,VALID,0,
2016-03-17, 09:32:04,VALID,919.326,VALID,0,VALID,73.8938,VALID,577.926,VALID,26.2925,VALID,122,VALID,0,
2016-03-17, 09:33:04,VALID,919.306,VALID,0,VALID,72.9942,VALID,595.761,VALID,26.605,VALID,122,VALID,0,
2016-03-17, 09:34:04,VALID,919.315,VALID,0,VALID,71.4314,VALID,601.348,VALID,26.859,VALID,220,VALID,0,
2016-03-17, 09:35:04,VALID,919.303,VALID,0,VALID,71.378,VALID,607.365,VALID,26.7223,VALID,181,VALID,0,
2016-03-17, 09:36:04,VALID,919.31,VALID,0,VALID,71.7135,VALID,615.101,VALID,26.566,VALID,165,VALID,0,
2016-03-17, 09:37:04,VALID,919.315,VALID,0,VALID,70.8368,VALID,616.068,VALID,26.5074,VALID,165,VALID,0.395312,
2016-03-17, 09:38:04,VALID,919.315,VALID,0,VALID,71.6601,VALID,626.812,VALID,26.5074,VALID,160,VALID,0,
2016-03-17, 09:39:04,VALID,919.324,VALID,0,VALID,71.9269,VALID,629.283,VALID,26.5094,VALID,150,VALID,0.302734,
2016-03-17, 09:40:04,VALID,919.324,VALID,0,VALID,71.3247,VALID,623.803,VALID,26.273,VALID,163,VALID,0.229297,
2016-03-17, 09:41:04,VALID,919.322,VALID,0,VALID,71.2484,VALID,643.358,VALID,26.1167,VALID,164,VALID,0.301562,
2016-03-17, 09:42:04,VALID,919.324,VALID,0,VALID,71.2179,VALID,658.507,VALID,25.9995,VALID,154,VALID,0.0078125,
2016-03-17, 09:43:04,VALID,919.354,VALID,0,VALID,71.7516,VALID,672.152,VALID,26.019,VALID,144,VALID,0,
2016-03-17, 09:44:04,VALID,919.335,VALID,0,VALID,72.5368,VALID,679.995,VALID,26.1948,VALID,119,VALID,0,
2016-03-17, 09:45:04,VALID,919.335,VALID,0,VALID,72.1556,VALID,694.929,VALID,26.3686,VALID,119,VALID,0,
2016-03-17, 09:46:04,VALID,919.353,VALID,0,VALID,70.8368,VALID,710.723,VALID,26.6246,VALID,139,VALID,0,
2016-03-17, 09:47:04,VALID,919.332,VALID,0,VALID,70.2727,VALID,722.542,VALID,26.6616,VALID,179,VALID,0,
2016-03-17, 09:48:04,VALID,919.344,VALID,0,VALID,70.4937,VALID,704.814,VALID,26.8395,VALID,197,VALID,0,
2016-03-17, 09:49:04,VALID,919.352,VALID,0,VALID,68.4583,VALID,498.205,VALID,27.0132,VALID,198,VALID,0,
2016-03-17, 09:50:04,VALID,919.32,VALID,0,VALID,67.1242,VALID,579.108,VALID,27.1109,VALID,184,VALID,0.354688,
2016-03-17, 09:51:04,VALID,919.292,VALID,0,VALID,66.3313,VALID,675.805,VALID,27.0719,VALID,185,VALID,1.35312,
2016-03-17, 09:52:04,VALID,919.307,VALID,0,VALID,64.5551,VALID,730.6,VALID,27.1891,VALID,187,VALID,0,
2016-03-17, 09:53:04,VALID,919.294,VALID,0,VALID,65.3327,VALID,710.616,VALID,27.4451,VALID,187,VALID,0,
2016-03-17, 09:54:04,VALID,919.339,VALID,0,VALID,64.2959,VALID,746.071,VALID,27.7166,VALID,188,VALID,0,
2016-03-17, 09:55:04,VALID,919.324,VALID,0,VALID,64.6161,VALID,759.716,VALID,27.6992,VALID,216,VALID,0,
2016-03-17, 09:56:04,VALID,919.316,VALID,0,VALID,66.9107,VALID,741.881,VALID,27.4842,VALID,216,VALID,0.0734375,
2016-03-17, 09:57:04,VALID,919.324,VALID,0,VALID,66.5982,VALID,677.631,VALID,27.3865,VALID,216,VALID,0,
2016-03-17, 09:58:04,VALID,919.335,VALID,0,VALID,66.5067,VALID,724.261,VALID,27.4256,VALID,173,VALID,0,
2016-03-17, 09:59:04,VALID,919.324,VALID,0,VALID,67.3605,VALID,741.774,VALID,27.5038,VALID,173,VALID,0,
2016-03-17, 10:00:04,VALID,919.339,VALID,0,VALID,68.2982,VALID,740.377,VALID,27.6992,VALID,173,VALID,0,
2016-03-17, 10:01:04,VALID,919.348,VALID,0,VALID,66.9412,VALID,738.55,VALID,27.836,VALID,257,VALID,0,
2016-03-17, 10:02:04,VALID,919.342,VALID,0,VALID,67.0098,VALID,726.302,VALID,27.5624,VALID,278,VALID,0,
2016-03-17, 10:03:04,VALID,919.354,VALID,0,VALID,67.2919,VALID,646.796,VALID,27.3063,VALID,296,VALID,0,
2016-03-17, 10:04:04,VALID,919.359,VALID,0,VALID,68.2982,VALID,697.83,VALID,27.15,VALID,296,VALID,0,
2016-03-17, 10:05:04,VALID,919.352,VALID,0,VALID,70.852,VALID,704.062,VALID,26.9351,VALID,304,VALID,0,
2016-03-17, 10:06:04,VALID,919.356,VALID,0,VALID,71.2179,VALID,734.253,VALID,26.8765,VALID,309,VALID,0,
2016-03-17, 10:07:04,VALID,919.387,VALID,0,VALID,72.5216,VALID,627.671,VALID,26.9351,VALID,318,VALID,0,
2016-03-17, 10:08:04,VALID,919.373,VALID,0,VALID,70.9435,VALID,380.879,VALID,27.1911,VALID,318,VALID,0,
2016-03-17, 10:09:04,VALID,919.363,VALID,0,VALID,67.3605,VALID,374.325,VALID,27.3258,VALID,288,VALID,0,
2016-03-17, 10:10:04,VALID,919.354,VALID,0,VALID,67.5663,VALID,342.952,VALID,27.15,VALID,284,VALID,0,
2016-03-17, 10:11:04,VALID,919.348,VALID,0,VALID,69.2435,VALID,263.983,VALID,27.0935,VALID,284,VALID,0,
2016-03-17, 10:12:04,VALID,919.328,VALID,0,VALID,71.7668,VALID,237.552,VALID,26.9742,VALID,284,VALID,0,
2016-03-17, 10:13:04,VALID,919.337,VALID,0,VALID,71.6296,VALID,227.99,VALID,26.8179,VALID,284,VALID,0,
2016-03-17, 10:14:04,VALID,919.315,VALID,0,VALID,69.7771,VALID,235.189,VALID,26.7788,VALID,342,VALID,0,
2016-03-17, 10:15:04,VALID,919.314,VALID,0,VALID,70.2498,VALID,225.734,VALID,26.7398,VALID,342,VALID,0,
2016-03-17, 10:16:04,VALID,919.271,VALID,0,VALID,69.5713,VALID,238.949,VALID,26.7398,VALID,342,VALID,0.181641,
2016-03-17, 10:17:04,VALID,919.27,VALID,0,VALID,69.8457,VALID,446.203,VALID,26.7007,VALID,342,VALID,0,
2016-03-17, 10:18:04,VALID,919.281,VALID,0,VALID,72.087,VALID,731.674,VALID,26.6616,VALID,342,VALID,0,
2016-03-17, 10:19:04,VALID,919.242,VALID,0,VALID,71.9574,VALID,738.765,VALID,26.8004,VALID,342,VALID,0,
2016-03-17, 10:20:04,VALID,919.253,VALID,0,VALID,70.913,VALID,744.352,VALID,26.8785,VALID,337,VALID,0.161719,
2016-03-17, 10:21:04,VALID,919.241,VALID,0,VALID,68.2067,VALID,749.617,VALID,26.7202,VALID,292,VALID,0.00429688,
2016-03-17, 10:22:04,VALID,919.236,VALID,0,VALID,68.2219,VALID,749.509,VALID,26.6226,VALID,283,VALID,0,
2016-03-17, 10:23:04,VALID,919.229,VALID,0,VALID,67.3071,VALID,740.484,VALID,26.8179,VALID,314,VALID,0.311328,
2016-03-17, 10:24:04,VALID,919.217,VALID,0,VALID,66.9946,VALID,738.013,VALID,26.7984,VALID,308,VALID,0,
2016-03-17, 10:25:04,VALID,919.195,VALID,0,VALID,68.2524,VALID,739.517,VALID,26.6421,VALID,288,VALID,0,
2016-03-17, 10:26:04,VALID,919.197,VALID,0,VALID,70.0744,VALID,747.576,VALID,26.6616,VALID,289,VALID,0,
2016-03-17, 10:27:04,VALID,919.197,VALID,0,VALID,67.1242,VALID,758.749,VALID,26.9546,VALID,338,VALID,0,
2016-03-17, 10:28:04,VALID,919.178,VALID,0,VALID,65.0735,VALID,779.486,VALID,27.3063,VALID,338,VALID,0,
2016-03-17, 10:29:04,VALID,919.14,VALID,0,VALID,64.799,VALID,310.827,VALID,27.3844,VALID,338,VALID,0,
2016-03-17, 10:30:04,VALID,919.147,VALID,0,VALID,66.9641,VALID,793.883,VALID,27.2672,VALID,338,VALID,0,
2016-03-17, 10:31:04,VALID,919.099,VALID,0,VALID,67.1013,VALID,785.287,VALID,27.3824,VALID,338,VALID,0,
2016-03-17, 10:32:04,VALID,919.114,VALID,0,VALID,66.7735,VALID,779.163,VALID,27.5017,VALID,298,VALID,0,
2016-03-17, 10:33:04,VALID,919.106,VALID,0,VALID,65.973,VALID,782.279,VALID,27.5212,VALID,303,VALID,0,
2016-03-17, 10:34:04,VALID,919.098,VALID,0,VALID,66.8421,VALID,784.965,VALID,27.4821,VALID,314,VALID,0,
2016-03-17, 10:35:04,VALID,919.093,VALID,0,VALID,66.2017,VALID,773.576,VALID,27.4626,VALID,317,VALID,0.167187,
2016-03-17, 10:36:04,VALID,919.116,VALID,0,VALID,66.3695,VALID,782.816,VALID,27.4431,VALID,319,VALID,0,
2016-03-17, 10:37:04,VALID,919.122,VALID,0,VALID,66.6134,VALID,796.569,VALID,27.7362,VALID,282,VALID,0,
2016-03-17, 10:38:04,VALID,919.122,VALID,0,VALID,64.0672,VALID,810.429,VALID,27.9902,VALID,283,VALID,0,
2016-03-17, 10:39:04,VALID,919.132,VALID,0,VALID,65.9502,VALID,827.942,VALID,28.1661,VALID,293,VALID,0,
2016-03-17, 10:40:04,VALID,919.145,VALID,0,VALID,62.977,VALID,868.984,VALID,28.1248,VALID,327,VALID,0,
2016-03-17, 10:41:04,VALID,919.14,VALID,0,VALID,66.3237,VALID,888.109,VALID,28.1856,VALID,320,VALID,0.103516,
2016-03-17, 10:42:04,VALID,919.126,VALID,0,VALID,62.3062,VALID,764.336,VALID,28.1053,VALID,285,VALID,0,
2016-03-17, 10:43:04,VALID,919.123,VALID,0,VALID,63.9681,VALID,780.238,VALID,27.9881,VALID,285,VALID,0,
2016-03-17, 10:44:04,VALID,919.103,VALID,0,VALID,62.7331,VALID,331.349,VALID,27.9294,VALID,284,VALID,0,
2016-03-17, 10:45:04,VALID,919.108,VALID,0,VALID,65.6605,VALID,279.992,VALID,27.6971,VALID,285,VALID,0,
2016-03-17, 10:46:04,VALID,919.097,VALID,0,VALID,66.7887,VALID,285.793,VALID,27.6168,VALID,284,VALID,0,
2016-03-17, 10:47:04,VALID,919.071,VALID,0,VALID,66.8116,VALID,378.515,VALID,27.5994,VALID,289,VALID,0,
2016-03-17, 10:48:04,VALID,919.05,VALID,0,VALID,67.1013,VALID,347.035,VALID,27.6364,VALID,310,VALID,0,
2016-03-17, 10:49:04,VALID,919.062,VALID,0,VALID,67.7722,VALID,735.22,VALID,27.6168,VALID,319,VALID,0,
2016-03-17, 10:50:04,VALID,919.031,VALID,0,VALID,63.9376,VALID,841.264,VALID,27.5212,VALID,303,VALID,0,
2016-03-17, 10:51:04,VALID,918.974,VALID,0,VALID,65.2031,VALID,897.456,VALID,27.3649,VALID,293,VALID,0,
2016-03-17, 10:52:04,VALID,918.996,VALID,0,VALID,66.8345,VALID,861.248,VALID,27.4647,VALID,288,VALID,0,
2016-03-17, 10:53:04,VALID,918.954,VALID,0,VALID,66.3847,VALID,890.365,VALID,27.6559,VALID,282,VALID,0,